Location: Presov
(49.0000°N, 21.2500°E)
Time: 11:48:47
(UTC+02:00)

ISS - Pass Details

Date: 28 March 2019
Orbit: 408 x 410 km, 51.6° (Epoch: 24 April)

Event Time Altitude Azimuth Distance (km) Brightness Sun altitude
Rises 19:19:33 0° 270° (W) 2,336 1.4 -13.6°
Reaches altitude 10° 19:21:41 10° 275° (W) 1,475 0.3 -13.9°
Maximum altitude 19:24:56 54° 354° (N) 506 -3.2 -14.4°
Enters shadow 19:26:52 21° 65° (ENE) 970 -2.3 -14.7°
